EHI
0 0 0 0 1 1 1 1 2 4 5 5 5 4 2 1 0 0 0 1 1 1 1 1 1 1 2 2 1 0 0 1 0 0 0 0 0 0 0 0 0 0 0
0 0 0 0 1 1 0 0 1 4 6 6 5 3 1 0 0 0 1 2 1 1 1 1 0 0 1 1 1 0 0 1 0 0 0 0 0 0 0 0 0 0 0
0 0 0 0 1 0 0 0 1 3 5 5 4 1 0 0 0 0 1 2 1 0 0 0 0 0 0 0 0 0 0 1 1 0 0 0 0 0 0 0 0 0 0
0 0 0 0 0 0 1 1 1 3 4 3 2 0 0 0 0 1 2 2 1 1 0 0 0 0 1 1 1 0 0 1 1 1 0 0 0 0 0 0 0 0 0
1 2 1 0 0 0 1 2 2 2 2 2 1 0 0 0 1 2 2 2 2 2 0 0 1 1 2 2 2 1 0 1 1 1 0 0 0 0 0 0 0 0 0
2 2 2 1 1 0 1 1 1 1 1 1 0 0 0 0 0 1 1 1 1 1 0 0 0 1 2 3 2 1 0 0 0 0 0 0 0 0 0 0 0 0 0
2 1 1 1 1 0 0 0 0 0 0 0 0 0 0 0 0 0 0 0 0 0 0 0 0 1 2 2 1 0 0 0 0 0 0 0 0 0 0 0 0 0 0
1 0 0 1 1 0 0 0 0 0 0 0 0 0 0 0 0 0 0 0 0 0 0 0 0 2 2 1 0 0 1 2 1 0 0 0 0 0 0 0 1 1 0
0 0 0 0 0 0 0 0 0 0 0 0 0 0 0 0 0 0 0 0 0 0 0 0 0 1 1 1 0 0 2 2 1 0 0 0 0 0 0 1 2 2 1
0 0 0 0 0 0 0 0 0 0 0 0 0 0 0 0 0 0 0 0 0 0 0 0 0 0 0 0 0 0 1 1 0 0 0 0 0 0 1 2 3 2 1
0 0 0 0 0 0 0 0 0 0 0 0 0 0 0 0 0 0 0 0 0 0 0 0 0 0 0 0 0 0 0 0 0 0 0 0 0 0 1 2 2 1 0
0 0 0 0 0 0 0 0 0 0 0 0 0 0 0 0 0 0 0 0 0 0 0 0 0 0 0 0 0 0 0 0 0 0 0 0 0 0 1 1 1 0 0
0 0 0 0 0 0 0 0 0 0 0 0 0 0 0 0 0 0 0 0 0 0 0 0 0 0 0 0 0 0 0 0 0 0 0 1 0 0 0 0 0 0 0
0 0 0 0 0 0 0 0 0 0 0 0 0 0 0 0 0 0 0 0 0 0 0 0 0 0 0 0 0 0 0 0 0 0 0 1 1 1 0 0 0 0 0
0 0 0 0 0 0 0 0 0 0 0 0 0 0 0 0 0 0 0 0 0 0 0 0 0 0 0 0 0 0 0 0 0 0 0 1 2 2 1 0 0 0 0
0 0 0 0 0 0 0 0 0 0 0 0 0 0 0 0 0 0 0 0 0 0 0 0 0 0 0 0 0 0 0 0 0 0 0 1 2 1 1 1 0 0 0
0 0 0 0 0 0 0 0 0 0 0 0 0 0 0 0 0 0 0 0 0 0 0 0 0 0 0 0 0 0 0 0 0 0 0 0 0 0 1 1 0 0 0
0 0 0 0 0 0 0 0 0 0 0 0 0 0 0 0 0 0 0 0 0 0 0 0 0 0 0 0 0 0 0 0 0 0 0 0 0 0 0 1 1 1 1
0 0 0 0 0 0 0 0 0 0 0 0 0 0 0 0 0 0 0 0 0 0 0 0 0 0 0 0 0 0 0 0 0 0 0 0 0 0 0 0 1 2 2
0 0 0 0 0 0 0 0 0 0 0 0 0 0 0 0 0 0 0 0 0 0 0 0 0 0 0 0 0 0 0 0 0 0 0 0 0 0 0 0 1 1 1
0 0 0 0 0 0 0 0 0 0 0 0 0 0 0 0 0 0 0 0 0 0 0 0 0 0 0 0 0 0 0 0 0 0 0 0 0 0 0 0 0 0 0
0 0 0 0 0 0 0 0 0 0 0 0 0 0 0 0 0 0 0 0 0 0 0 0 0 0 0 0 0 0 0 0 0 0 0 0 0 0 0 0 0 0 0
0 0 0 0 0 0 0 0 0 0 0 0 0 0 0 0 0 0 0 0 0 0 0 0 0 0 0 0 0 0 0 0 0 0 0 0 0 0 0 0 0 0 0
0 0 0 0 0 0 0 0 0 0 0 0 0 0 0 0 0 0 0 0 0 0 0 0 0 0 0 0 0 0 0 0 0 0 0 0 0 0 0 0 0 0 0
0 0 0 0 0 0 0 0 0 0 0 0 0 0 0 0 0 0 0 0 0 0 0 0 0 0 0 0 0 0 0 0 0 0 0 0 0 0 0 0 0 0 0
0 0 0 0 0 0 0 0 0 0 0 0 0 0 0 0 0 0 0 0 0 0 0 0 0 0 0 0 0 0 0 0 0 0 0 0 0 0 0 0 0 0 0
Wind_Speed
2 2 6 9 10 11 11 11 11 11 11 11 11 11 10 10 9 8 8 7 7 6 6 6 6 6 5 5 5 5 4 4 4 3 3 3 2 2 2 1 2 1 2
4 3 8 9 11 11 11 11 11 11 11 11 11 10 9 9 8 8 7 7 6 6 6 5 5 5 4 4 4 4 4 4 4 3 3 3 2 1 1 1 1 1 1
5 4 6 10 11 11 11 11 11 11 11 11 10 10 8 8 8 7 6 6 5 5 5 5 4 4 4 4 4 4 4 4 4 4 5 3 2 1 0 1 1 1 1
6 5 6 10 11 11 10 11 11 11 10 10 9 8 8 7 7 6 6 5 5 5 5 4 4 4 4 4 4 4 4 4 4 5 3 3 2 1 0 1 1 1 1
6 5 6 10 11 11 11 11 10 10 10 9 8 8 7 7 7 6 6 5 5 4 4 4 4 3 4 4 4 4 4 4 4 4 3 3 2 3 1 1 1 1 1
5 5 6 11 11 11 10 10 10 9 9 9 8 8 7 7 7 6 5 5 4 4 4 4 3 3 4 4 4 4 3 3 4 2 2 2 2 3 2 1 1 1 2
5 4 5 10 11 10 10 9 9 9 8 8 7 6 6 6 6 5 5 5 4 4 4 4 4 4 4 4 4 4 4 3 2 1 2 2 3 4 2 1 1 1 1
6 4 4 9 10 9 9 8 7 7 7 6 5 5 5 5 5 5 4 4 4 4 4 4 4 4 5 5 5 4 3 3 2 2 2 2 4 4 2 1 1 1 1
5 4 3 3 5 7 7 7 6 6 5 5 4 4 4 4 4 4 4 4 4 4 4 4 4 5 5 5 5 5 3 3 1 1 2 2 5 4 2 1 1 1 1
4 3 3 3 3 3 3 4 5 5 5 4 4 5 5 6 6 6 6 5 5 5 5 5 5 5 5 5 5 5 4 3 1 1 1 3 5 4 2 1 1 0 0
3 2 2 3 2 2 2 3 4 4 5 5 4 5 5 4 4 4 6 6 5 6 6 6 6 5 5 5 5 5 4 1 1 1 1 4 5 3 2 1 0 1 1
3 2 2 2 2 2 2 3 2 3 3 3 3 3 3 2 3 4 7 8 8 7 8 8 7 6 5 3 4 4 2 2 1 1 2 5 4 3 3 1 1 1 2
4 3 2 2 2 2 1 2 2 2 2 2 3 3 2 2 3 3 3 4 5 6 4 5 5 3 3 2 2 2 2 1 1 1 3 5 4 3 3 2 1 1 2
4 3 3 3 2 2 2 2 1 1 1 2 2 2 2 2 2 3 2 3 3 2 3 3 2 3 3 3 2 2 2 1 1 1 2 5 4 4 3 3 2 2 2
4 3 3 3 3 2 2 1 1 1 1 1 2 2 2 2 2 2 2 2 2 2 2 3 3 3 3 3 3 3 2 2 2 2 2 5 5 4 4 3 3 3 3
4 4 3 3 3 3 2 2 1 1 1 1 1 2 2 2 1 2 2 2 2 2 2 2 2 2 2 2 3 3 2 2 2 2 2 3 5 5 5 4 4 4 3
5 4 4 4 3 3 3 2 1 1 1 1 1 2 2 2 2 1 2 2 2 2 2 2 3 2 3 3 3 3 3 3 2 3 2 2 3 5 5 4 5 4 3
5 4 4 4 4 3 3 2 1 2 2 1 1 2 2 2 2 2 2 2 2 2 2 2 2 2 3 3 2 3 3 3 3 3 2 2 2 3 4 6 5 4 4
6 5 4 4 4 4 3 3 2 2 2 1 2 2 2 2 2 2 2 2 2 2 3 2 2 2 2 2 2 2 3 3 3 3 3 3 3 3 3 4 5 4 4
5 5 5 4 4 4 3 3 2 3 2 2 2 1 2 2 2 2 2 3 3 3 3 3 2 2 1 2 2 3 3 3 2 3 3 3 3 3 3 4 3 3 5
5 4 4 5 3 3 2 2 2 1 1 1 1 2 2 2 2 2 2 3 3 2 2 2 2 3 3 2 2 3 3 3 3 3 3 3 3 4 3 4 3 2 2
5 4 4 5 4 3 2 2 2 1 1 0 1 2 3 2 2 2 2 2 2 2 3 3 2 2 2 3 2 2 3 5 4 4 3 3 4 3 4 4 3 3 2
5 5 5 5 4 3 3 3 3 3 2 2 2 2 2 2 2 2 2 2 2 2 2 2 2 2 1 2 2 2 2 1 3 3 3 3 4 3 3 3 3 3 3
5 4 4 4 4 3 4 3 3 2 1 1 1 1 2 2 2 2 2 2 2 2 2 2 2 1 1 1 2 2 1 2 1 2 3 3 4 3 4 3 3 3 3
5 4 4 4 3 3 3 4 3 2 1 0 0 1 2 2 2 2 2 2 2 1 2 2 2 2 1 1 1 1 1 1 1 1 2 4 4 3 3 3 2 2 3
4 4 4 4 3 3 3 3 3 3 2 2 1 1 1 1 2 2 1 1 1 1 1 1 1 2 1 1 1 1 1 1 0 1 1 2 3 3 3 2 2 2 2
Wind_Direction
162 179 145 126 118 114 112 111 109 107 107 105 103 101 100 101 99 99 100 101 100 96 91 89 85 80 74 75 75 72 68 61 54 50 52 57 61 73 89 87 82 71 96
145 148 139 126 121 118 114 110 108 107 106 102 100 100 99 98 97 94 94 95 95 93 89 85 84 79 69 63 64 57 52 47 38 34 35 31 31 51 83 103 112 113 104
127 129 132 126 121 117 114 110 108 106 104 101 100 99 99 96 94 91 91 91 90 87 85 80 74 70 65 54 51 41 34 32 32 36 35 19 351 352 84 110 126 123 121
125 120 127 125 119 115 112 109 106 102 102 101 100 98 96 92 89 86 86 84 81 80 78 74 65 54 48 40 34 29 24 27 35 41 32 5 338 328 344 136 140 140 115
117 116 126 123 119 115 111 107 105 104 103 100 98 94 91 87 84 80 78 73 67 64 64 62 53 40 30 26 24 20 16 22 34 38 15 356 338 314 301 265 217 160 140
116 117 125 124 119 115 111 108 106 104 101 98 95 91 86 81 77 72 67 61 56 49 45 43 35 23 14 10 11 8 5 17 39 29 8 350 330 312 298 292 259 181 161
121 117 125 126 121 118 115 111 107 102 98 94 92 87 80 72 66 61 54 47 43 35 29 26 18 9 5 1 360 356 354 4 50 22 353 340 313 311 298 279 270 182 170
125 115 117 128 125 124 120 115 109 103 99 92 86 79 69 57 49 41 33 28 23 19 14 11 4 359 355 353 352 347 343 345 19 9 335 321 308 310 301 268 247 195 175
113 109 97 101 116 121 119 116 109 102 94 85 73 63 54 40 28 19 10 3 1 3 359 355 351 351 352 351 353 355 352 355 39 346 329 322 315 312 298 262 235 218 197
102 104 103 93 85 81 84 105 102 94 84 68 54 43 33 25 16 8 360 352 353 360 356 352 351 353 358 356 359 4 11 17 27 353 332 308 318 321 317 282 241 241 235
121 104 110 105 90 79 74 79 72 63 54 45 34 30 30 20 8 1 359 5 5 2 1 2 3 3 8 2 0 9 20 36 13 337 317 314 322 323 323 308 268 330 334
162 157 132 123 105 86 70 62 45 47 39 34 32 29 26 21 10 17 13 18 18 17 13 15 18 20 23 7 359 10 25 23 12 329 319 325 324 328 328 315 318 339 331
172 171 163 149 131 113 81 72 50 40 31 23 31 34 31 28 20 21 18 12 11 16 13 10 21 20 18 11 7 12 17 22 359 330 324 329 330 333 335 333 336 335 326
164 182 171 154 142 129 104 82 70 49 33 29 28 35 47 42 32 24 23 7 8 2 4 9 14 12 14 15 18 19 15 10 354 337 322 333 339 337 332 324 318 325 320
170 179 171 160 154 141 117 97 82 55 46 44 38 33 55 68 48 31 17 12 8 7 13 10 14 17 15 12 19 29 17 5 357 351 334 341 346 344 334 329 323 320 320
177 176 158 155 152 137 128 116 98 74 59 56 46 43 60 74 71 47 23 12 7 1 4 17 20 20 13 15 17 19 14 5 355 353 349 347 348 347 344 338 326 321 319
173 162 158 157 140 136 130 125 109 84 76 65 46 43 60 70 71 64 39 18 359 353 7 22 23 23 23 22 14 9 15 7 1 0 358 354 346 347 354 353 335 331 329
159 156 163 152 134 132 126 116 96 75 71 57 45 42 49 58 68 63 47 14 355 6 18 27 25 26 21 17 11 5 6 3 3 3 4 1 358 352 352 359 353 353 352
161 154 148 135 131 128 116 98 86 73 62 50 46 39 36 45 53 63 48 13 11 26 23 21 35 33 22 10 11 18 8 10 1 10 12 7 3 359 354 355 6 9 13
146 142 137 129 124 117 102 86 68 56 40 38 35 28 36 37 46 57 48 27 28 37 25 25 35 30 22 359 21 26 9 4 7 17 10 7 3 4 5 8 6 9 20
135 140 142 138 139 129 111 105 97 71 21 18 11 22 32 35 41 53 46 32 31 39 27 23 35 32 15 1 34 12 357 6 18 16 7 13 12 5 5 12 7 8 6
151 152 151 154 153 150 136 126 127 125 95 36 357 18 27 27 25 48 53 36 27 33 28 26 36 36 14 21 59 53 6 353 354 3 6 16 10 5 9 7 4 7 5
161 170 168 164 158 149 131 104 84 62 40 26 12 6 3 18 28 43 50 46 34 42 27 18 34 63 33 11 44 100 96 335 322 337 358 10 5 6 360 354 0 358 360
176 168 158 155 154 147 137 136 136 133 149 231 273 326 355 18 22 29 43 47 46 42 28 5 41 55 76 22 9 41 113 162 92 337 336 349 358 3 355 354 355 353 359
161 157 157 150 147 141 139 145 137 135 154 142 43 26 10 1 7 22 35 40 39 31 26 25 29 39 65 83 32 22 51 56 83 120 324 332 343 340 344 339 344 350 351
144 144 146 144 143 136 137 140 146 151 148 129 94 30 355 339 342 359 20 28 22 15 13 18 29 37 37 55 52 73 99 92 98 132 240 310 324 316 332 340 349 342 339